Location: Borojevi?i
(45.0486°N, 16.2297°E)
Time: 23:23:41
(UTC+00:00)

SL-16 R/B - Pass Details

Date: 08 August 2020
Orbit: 843 x 845 km, 71.0° (Epoch: 23 September)

Event Time Altitude Azimuth Distance (km) Brightness Sun altitude
Rises 19:51:25 0° 341° (NNW) 3,415 6.5 -15.5°
Reaches altitude 10° 19:54:26 10° 356° (N) 2,477 5.3 -15.9°
Maximum altitude 19:58:51 23° 48° (NE) 1,745 3.8 -16.5°
Enters shadow 20:01:58 15° 88° (E) 2,139 3.9 -16.9°
